Time,TemperatureF,DewpointF,PressureIn,WindDirection,WindDirectionDegrees,WindSpeedMPH,WindSpeedGustMPH,Humidity,HourlyPrecipIn,Conditions,Clouds,dailyrainin,SoftwareType,DateUTC
2015-03-02 00:23:00,22.0,15.0,30.22,WNW,291,10.0,21.0,74,0.00,,,0.00,,2015-03-02 05:23:00,
2015-03-02 00:52:00,22.0,15.0,30.22,WSW,250,6.0,14.0,75,0.00,,,0.00,,2015-03-02 05:52:00,
2015-03-02 01:12:00,22.0,16.0,30.22,WSW,254,7.0,15.0,76,0.00,,,0.00,,2015-03-02 06:12:00,
2015-03-02 01:22:00,22.0,16.0,30.22,West,259,3.0,15.0,77,0.00,,,0.00,,2015-03-02 06:22:00,
2015-03-02 01:52:00,21.0,16.0,30.23,West,259,8.0,16.0,79,0.00,,,0.00,,2015-03-02 06:52:00,
2015-03-02 02:12:00,21.0,16.0,30.24,West,270,8.0,15.0,79,0.00,,,0.00,,2015-03-02 07:12:00,
2015-03-02 02:22:00,21.0,16.0,30.24,West,277,5.0,13.0,80,0.00,,,0.00,,2015-03-02 07:22:00,
2015-03-02 02:52:00,21.0,16.0,30.24,WNW,290,6.0,13.0,81,0.00,,,0.00,,2015-03-02 07:52:00,
2015-03-02 03:22:00,20.0,15.0,30.24,WSW,241,6.0,14.0,82,0.00,,,0.00,,2015-03-02 08:22:00,
2015-03-02 03:52:00,19.0,15.0,30.25,WSW,257,4.0,9.0,83,0.00,,,0.00,,2015-03-02 08:52:00,
2015-03-02 04:22:00,18.0,14.0,30.26,WSW,254,3.0,10.0,84,0.00,,,0.00,,2015-03-02 09:22:00,
2015-03-02 04:54:00,18.0,14.0,30.29,WSW,252,3.0,9.0,85,0.00,,,0.00,,2015-03-02 09:54:00,
2015-03-02 05:13:00,18.0,14.0,30.30,West,259,4.0,7.0,85,0.00,,,0.00,,2015-03-02 10:13:00,
2015-03-02 05:23:00,18.0,14.0,30.30,WSW,252,3.0,7.0,84,0.00,,,0.00,,2015-03-02 10:23:00,
2015-03-02 05:54:00,17.0,12.0,30.31,WSW,254,3.0,7.0,82,0.00,,,0.00,,2015-03-02 10:54:00,
2015-03-02 06:23:00,16.0,11.0,30.33,West,263,2.0,5.0,81,0.00,,,0.00,,2015-03-02 11:23:00,
2015-03-02 06:52:00,15.0,10.0,30.34,West,263,3.0,4.0,80,0.00,,,0.00,,2015-03-02 11:52:00,
2015-03-02 07:12:00,15.0,10.0,30.35,WSW,251,1.0,5.0,80,0.00,,,0.00,,2015-03-02 12:12:00,
2015-03-02 07:22:00,14.0,9.0,30.36,WSW,251,1.0,3.0,80,0.00,,,0.00,,2015-03-02 12:22:00,
2015-03-02 07:53:00,13.0,8.0,30.37,WSW,251,1.0,3.0,81,0.00,,,0.00,,2015-03-02 12:53:00,
2015-03-02 08:23:00,15.0,10.0,30.37,WSW,245,2.0,5.0,79,0.00,,,0.00,,2015-03-02 13:23:00,
2015-03-02 08:52:00,16.0,10.0,30.39,SW,232,3.0,3.0,76,0.00,,,0.00,,2015-03-02 13:52:00,